Showing default

QIANFAN-60, 62790

Orbit data source: Space-Track

QIANFAN-60, 62790 is a Chinese payload satellite in LEO that was launched on Thu, 23 Jan 2025 UTC via a CHANG ZHENG 6A launch vehicle from the Taiyaun Space Center, China (TSC). Payload-class satellites include a variety of spacecraft equipped with specific instruments for various scientific and technological missions. These include communications satellites like Starlink; space stations such as the ISS; scientific satellites like the Hubble; Earth observation satellites from companies like Planet Labs, Umbra, and HawkEye 360; GPS; miniature CubeSats for education and research; and military/defense satellites.

Loading next visibility...
Identifier
62790, 2025-016F
Orbit
LEO
Country
Flag of CNCN / PRC
Related business
Manufacturer
SECM
Mission
Operational Commercial Communications
Bus & Motor
QIANFAN, Unknown motor
Mass
267 kg wet, ~267 kg dry
Launch date (UTC)
2025-01-23 (2 years ago)
Launch vehicle
CHANG ZHENG 6A
Launch site
Taiyaun Space Center, China (TSC)
Object type
Payload
Rocket body
Debris
Shape & HBR
Box + 1 Pan, 5.0 m
Radar Cross Section
13.200 m², Large (>1 m²)

Expand to show TLE details & history
Last TLE update: 8 hours ago

TLE from 8 hours ago
0 QIANFAN-60
1 62790U 25016F   26257.59028015  .00000044  00000-0  49043-4 0  9992
2 62790  88.9648  74.3812 0013903 266.2665  93.6897 13.51027668 84477
Epoch: 2026-09-14T14:10Z
TLE epoch observation values (Epoch: 2026-09-14T14:10:00.204Z)
Latitude
0.00001°
Longitude
-131.68804°
Altitude
1,072.114 km
Speed
7.316 km/s
True Right ascension
04h 57m 31s
True Declination
0° 00' 00"
Sunlit
Object was in daylight at epoch
Visualization orbit readout
Latitude
Unknown
Longitude
Unknown
Altitude
Unknown
Speed
Unknown
Apparent Right ascension
Unknown
Apparent Declination
Unknown
Sunlit
N/A
Visualization observer readout
Local Sidereal Time
14:59:33
Azimuth
Unknown
Elevation
Unknown
Doppler factor
Unknown
Orbital elements
Apogee altitude
1,075.88 km
Perigee altitude
1,055.182 km
Semi-major axis
7,443.668 km
Eccentricity
0.00139
Inclination
88.9648°
RAAN
74.3812°
Arg. of periapsis
266.2665°
True anomaly
93.84867°
Mean anomaly
93.6897°
Eccentric anomaly
93.76919°
Mean motion
3.37958 °/min
Orbital period
106.52 mins
BSTAR
0.000049043
Loading maneuver chart data...
Computing Atmospheric mass density...
Loading historical data...
Loading historical data...
Loading historical data...
Loading historical data...
Loading historical data...
Loading historical data...
Loading historical data...

Documentation

Showing up to 5 results
|